Regional Weather Roundup
Issued by NWS Upton, NY

Home | Current Version | Previous Version | Text Only | Print | Product List | Glossary On
Versions: 1 2 3 4 5 6 7 8 9 10 11 12 13 14 15 16 17 18 19 20 21 22 23 24 25 26 27 28 29 30 31 32 33 34 35 36 37 38 39 40 41 42 43 44 45 46 47 48 49 50
000
ASUS41 KOKX 290305
RWROKX

REGIONAL WEATHER ROUNDUP
NATIONAL WEATHER SERVICE NEW YORK NY
1100 PM EDT THU AUG 28 2014

NOTE: "FAIR" INDICATES FEW OR NO CLOUDS BELOW 12,000 FEET WITH NO
SIGNIFICANT WEATHER AND/OR OBSTRUCTIONS TO VISIBILITY.

NYZ071-072-176-178-NJZ106-104-290400-
NEW YORK CITY METRO AREA


CITY           SKY/WX    TMP DP  RH WIND       PRES   REMARKS
CENTRAL PARK   CLEAR     69  45  41 VRB6      30.07R
LAGUARDIA APRT CLEAR     69  49  48 NW12      30.04R
KENNEDY INTL   PTCLDY    70  46  42 NW16G22   30.04R
NEWARK/LIBERTY PTCLDY    68  46  45 NW10      30.05R
BRNX BOT. GARD   N/A     66  46  48 W2        30.07R
TETERBORO      CLEAR     67  46  47 NW8       30.04R
$$

NYZ177-179-078>081-290400-
LONG ISLAND NEW YORK

CITY           SKY/WX    TMP DP  RH WIND       PRES   REMARKS
FARMINGDALE    CLEAR     69  51  52 N9        30.03R
ISLIP          PTCLDY    69  50  50 N15       30.00R
SHIRLEY        CLEAR     68  52  56 N7        30.02R
WESTHAMPTON    CLEAR     69  52  54 N8        30.02R
MONTAUK POINT    N/A     70  57  63 NW9       30.00R
$$

NYZ052-065-067-290400-
HUDSON VALLEY

CITY           SKY/WX    TMP DP  RH WIND       PRES   REMARKS
WHITE PLAINS   CLEAR     63  50  62 NW9       30.04R
NEWBURGH       NOT AVBL
MONTGOMERY     CLEAR     60  48  64 NW3       30.06R
POUGHKEEPSIE   CLEAR     61  51  70 CALM      30.04R
ALBANY         PTCLDY    60  52  74 NW5       30.06R
$$

NJZ001-105-106-008-010-013-015-019>022-104-290400-
NEW JERSEY

CITY           SKY/WX    TMP DP  RH WIND       PRES   REMARKS
NEWARK/LIBERTY PTCLDY    68  46  45 NW10      30.05R
TETERBORO      CLEAR     67  46  47 NW8       30.04R
CALDWELL       CLEAR     63  45  51 CALM      30.06R
MORRISTOWN     CLEAR     66  45  45 CALM      30.06R
SOMERVILLE     CLEAR     64  47  53 N5        30.06R
LINDEN         FAIR      71  49  45 N7        30.07R
SUSSEX         CLEAR     56  48  74 CALM      30.08R
ANDOVER          N/A     56  49  77 NW3       30.09R
TRENTON        CLEAR     64  49  57 N6        30.07R
MILLVILLE      CLEAR     62  54  74 W5        30.06R
ATLANTIC CITY  CLEAR     61  54  77 NW3       30.05R
WRIGHTSTOWN    CLEAR     64  52  64 N12       30.04R
TOMS RIVER     CLEAR     64  52  63 NW5       30.05R
BELMAR         CLEAR     66  46  48 NW8       30.05R
$$

PAZ047>061-062-071-290400-
EASTERN PENNSYLVANIA

CITY           SKY/WX    TMP DP  RH WIND       PRES   REMARKS
PHILADELPHIA   PTCLDY    71  49  45 N14       30.07R
ALLENTOWN      CLEAR     62  46  55 N6        30.10R
SCRANTON       CLEAR     61  48  62 N8        30.11S
$$

CTZ002-004>006-009-010-012-RIZ004-006-007-MAZ004-011-015-290400-
SOUTHERN NEW ENGLAND
 IN CT

CITY           SKY/WX    TMP DP  RH WIND       PRES   REMARKS
BRADLEY INTL   PTCLDY    64  53  67 N7        30.01R
HARTFORD       PTCLDY    67  52  58 N8        30.01R
DANBURY        CLEAR     64  50  60 VRB6      30.05S
WTRBRY/OXFORD  CLEAR     63  48  59 NW9       30.05S
BRIDGEPORT     CLEAR     68  51  54 N12       30.01S
MERIDEN        PTCLDY    68  51  54 NW8       30.01S
NEW HAVEN      CLEAR     69  52  54 NW7       30.02R
CHESTER        MOCLDY    66  54  63 N8        30.02S
GROTON         CLEAR     64  54  69 N6        29.99R
WILLIMANTIC    CLOUDY    65  55  70 N6        30.02R

 IN RI

CITY           SKY/WX    TMP DP  RH WIND       PRES   REMARKS
PROVIDENCE     CLEAR     66  50  56 NW7       30.00R
BLOCK ISLAND   CLEAR     66  54  63 N9        29.99R
WESTERLY       CLEAR     66  53  63 N7        30.00R

 IN MA

CITY           SKY/WX    TMP DP  RH WIND       PRES   REMARKS
BOSTON         PTCLDY    67  47  48 NW13      29.97R
WORCESTER      CLEAR     61  48  62 NW12      30.02R
WESTFIELD      PTCLDY    64  53  67 N5        30.02R
PROVINCETOWN   CLEAR     66  55  68 NW12      29.96R
NANTUCKET      CLEAR     70  52  52 N16G25    29.94R
$$

ANZ330-335-338-340-345-350-353-355-290400-
COASTAL MARINE OBSERVATIONS


STATION/POSITION TIME  SKY/WX   TEMP    WIND        PRES    VSBY  WAVE
                                AIR SEA DIR/SP/G                  HT/PER
                 (UTC)          (F)     (DEG/KT/KT) (MB)    (MI)  (FT/S)
NY HARB ENTRANCE NOT AVBL
4S FIRE IS       NOT AVBL
23SW MTP         0300                                 N/A           5/12
HUDSON CANYON    0300            73 72  350/  8/ 10 1015.4          5/11
EXECUTION ROCKS  0300            70 74  310/ 12/ 16   N/A
WESTERN LI SOUND 0300            70     340/ 12/ 16   N/A           1
CENTRAL LI SOUND 0200            70 72  330/ 16/ 19   N/A           2/ 3
EASTERN LI SOUND 0200            69 69  350/ 10/ 14   N/A
ROBBINS REEF     0300            69     330/ 11/ 16   N/A
$$


>>>>>>>>>>>>>>>>>>>>>>>>>>>> KEY <<<<<<<<<<<<<<<<<<<<<<<<<<<
>                                                          <
>     SKY/WX - SKY CONDITION/PRESENT WEATHER               <
>     TMP    - TEMPERATURE IN FAHRENHEIT                   <
>     DP     - DEWPOINT IN FAHRENHEIT                      <
>     RH     - RELATIVE HUMIDITY IN PERCENT                <
>     WIND   - DIRECTION AND SPEED IN MPH                  <
>     PRES   - MEAN SEA LEVEL PRESSURE IN INCHES OF HG     <
>     WCI    - WIND CHILL INDEX                            <
>     VSB    - VISIBILITY IN MILES                         <
>     HX     - HEAT INDEX                                  <
>     TC     - TEMPERATURE IN CELSIUS                      <
>     VRB    - VARIABLE WIND DIRECTION                     <
>                                                          <
>>>>>>>>>>>>>>>>>>>>>>>>>>>> KEY <<<<<<<<<<<<<<<<<<<<<<<<<<<





USA.gov is the U.S. government's official web portal to all federal, state and local government web resources and services.